PulseSat

PulseSat

GSAT0207 (GALILEO 15)

Last updated on Feb. 15, 2019, 3:04 a.m. UTC

1 41859U 16069A   19044.64417732  .00000034  00000-0  00000-0 0  9998
2 41859  54.5953 175.4548 0003195 294.6735  65.2579  1.70473726 13867
UTC
Height (km)
Latitude
Longitude
Inclination
Orbital Period

Next 30 passes for location: Hong Kong

Rise time Rise Azimuth (degrees) Set time Set Azimuth (degrees) Duration Max altitude (degrees)

No matching passes for this satellites

PulseSat

PulseSat is the new satellites software and hardware trackering solution by Pulsely.
Satellite Two Line Element Set source: US Air Force Space Command

Download PulseSat for iOS
© 2017 Pulsely Limited